CAPE
277 141 43 2 1 186 324 844 913 1008 1310 1615 1551 1674 1596 1409 1389 1401 881 874 902 982 916 868 855 1097 1087 779 973 1087 968 894 556 456 785 1136 1738 1759 1262 1085 707 715 447
744 207 160 44 66 229 487 727 649 723 1230 1536 1943 2062 1776 1528 1488 1353 1291 934 1014 1057 1102 1076 1055 885 1113 1220 978 1092 967 958 795 839 896 1064 1121 1434 1766 1643 1234 640 589
659 537 377 332 430 516 598 707 850 1459 1901 1988 1970 2127 1573 1436 1347 1438 1361 1252 943 1224 1208 1109 1214 988 1140 1146 1179 1011 1028 1129 1234 1038 884 855 1076 1169 1331 1626 1466 914 1214
1269 959 766 650 536 505 486 382 786 1515 1939 2284 2078 1895 1372 1387 1383 954 990 1131 900 1095 1328 1312 1145 1188 1254 1540 1131 773 443 698 1003 1127 804 799 715 797 1287 703 706 1340 858
2276 2155 2207 2066 2031 2108 2462 2259 1331 2134 2077 1365 1510 1376 1313 1151 1101 993 874 843 946 1011 1032 1157 1217 1362 1287 1077 811 701 688 1093 666 1015 685 548 242 194 230 7 57 2 4
1230 1404 2052 2415 2146 2178 2490 2674 2357 1919 1551 1394 791 187 116 794 872 408 496 783 783 816 961 1104 1377 1054 1068 753 565 415 1228 1097 1203 615 596 316 641 401 1 0 0 0 0
350 415 531 509 374 609 1173 1734 2109 2059 1757 1127 750 493 391 629 362 209 134 400 737 867 736 1200 1136 859 1106 1241 648 283 539 618 725 1383 1323 1206 884 406 57 0 0 0 0
159 99 154 217 323 508 480 688 967 1044 1535 1691 1293 1041 787 568 38 4 4 58 520 852 1151 1238 1224 915 1043 1293 872 1231 1295 1464 1325 1073 1125 1372 1017 109 0 0 0 0 0
43 26 11 1 3 16 111 410 500 599 692 609 606 620 837 666 53 0 0 62 181 657 918 945 569 668 1056 305 532 558 1276 1313 373 351 149 2 0 0 0 0 0 0 0
16 41 108 82 14 1 0 17 195 332 274 284 275 236 123 0 26 0 0 0 79 295 502 810 230 284 293 280 409 722 1031 1323 1136 236 9 0 0 0 0 0 0 0 0
34 116 193 86 83 109 125 118 116 81 188 171 156 160 188 124 76 0 0 0 0 0 255 328 675 349 150 271 310 574 618 1169 860 1120 494 53 0 0 0 0 1 3 3
165 146 178 254 120 0 0 169 237 204 111 66 102 51 0 271 5 0 0 0 0 0 0 578 535 757 242 99 115 256 412 611 639 244 162 0 0 0 0 0 4 4 8
38 65 155 292 320 246 227 225 97 28 7 0 0 0 0 1 207 0 0 0 0 0 0 1 65 240 52 11 8 11 78 288 380 283 88 0 0 0 0 0 5 15 28
0 0 0 0 5 73 64 13 4 0 0 0 0 0 0 0 5 171 93 16 0 0 0 0 31 43 33 13 0 0 9 82 154 85 17 0 0 0 1 7 9 6 12
0 0 0 0 0 1 5 1 0 0 0 0 0 0 0 7 18 10 36 16 27 0 0 0 0 20 5 0 0 0 7 41 46 38 0 0 0 0 2 9 7 4 2
0 0 0 0 0 1 2 0 0 0 0 0 0 0 0 0 0 0 0 0 0 0 1 0 0 3 6 0 19 2 40 41 21 9 4 0 0 0 1 1 7 8 2
5 2 3 3 3 3 8 9 4 0 0 0 0 0 0 0 0 0 0 0 0 0 3 15 5 1 28 38 71 88 61 10 1 0 0 2 1 0 0 0 4 5 3
9 5 7 11 14 9 16 17 17 26 7 0 0 0 0 0 0 0 0 0 0 0 3 13 35 36 66 72 49 97 41 1 0 0 0 0 0 0 0 0 0 0 0
9 3 1 14 14 10 6 9 20 17 12 14 28 8 0 0 0 0 0 0 0 127 23 43 82 77 70 133 148 173 35 0 0 0 2 0 0 0 0 0 0 0 0
10 2 0 3 1 0 7 20 19 16 61 44 32 54 11 0 12 12 0 0 0 245 624 166 115 127 55 146 179 133 11 0 0 0 0 0 0 0 0 0 0 0 0
5 12 20 16 16 2 1 1 33 83 100 54 98 62 20 19 57 46 66 0 0 120 504 466 348 245 92 132 77 31 7 0 0 0 0 0 0 0 0 2 20 19 39
8 21 7 3 0 3 6 6 7 1 63 118 81 91 8 39 101 42 53 87 79 61 428 739 518 423 282 265 189 22 2 0 0 0 0 0 0 0 0 19 25 32 33
16 5 9 3 4 2 4 8 6 12 16 78 162 116 27 24 156 169 59 35 239 496 302 393 592 430 422 400 376 92 2 0 0 0 0 0 0 7 5 8 18 24 52
5 6 6 1 0 1 0 4 2 2 41 27 101 125 134 143 215 286 217 221 381 700 784 734 681 578 479 328 134 79 22 0 0 0 0 0 0 0 73 54 40 38 81
3 5 0 1 5 4 1 2 3 2 1 113 11 23 252 240 283 420 403 533 583 817 906 738 751 645 686 510 62 45 43 0 0 0 0 0 0 14 41 43 59 94 115
4 5 9 1 2 3 3 2 3 3 3 6 232 276 338 389 360 440 447 693 785 835 977 863 701 633 638 547 269 7 0 0 0 0 0 0 56 49 53 52 103 127 153
CIN
-86 -84 -120 -45 -14 -93 -85 -15 -6 -8 -7 -4 -10 -6 -4 -1 -1 -1 -14 -2 -4 -2 -1 -1 -8 -5 -11 -1 -9 -1 -1 -2 -1 -1 -1 -0 -5 -8 -2 -20 -39 -39 -18
-64 -119 -119 -181 -169 -142 -40 -3 -20 -32 -12 -9 -3 -0 -1 -2 -0 -5 -6 -1 -1 -1 -1 -1 -0 -1 -1 -4 -1 -1 -2 -1 -1 -0 -2 -9 -7 -1 -0 -2 -6 -1 -3
-92 -86 -120 -115 -67 -32 -19 -43 -58 -13 -5 -5 -0 -0 -5 -3 -4 -0 -1 -1 -1 -1 -0 -1 -1 -1 -2 -1 -1 -3 -1 -1 -1 -0 -1 -2 -1 -0 -1 -0 -0 -1 -0
-49 -60 -66 -84 -114 -104 -83 -130 -86 -23 -12 -13 -17 -11 -19 -2 -1 -5 -4 -0 -1 -1 -1 -1 -1 -0 -0 -0 -12 -23 -18 -17 -3 -0 -0 -6 -2 -1 -1 -0 -2 -11 -1
-13 -10 -5 -8 -6 -4 -1 -11 -64 -5 -28 -59 -55 -65 -58 -32 -29 -24 -12 -7 -0 -0 -1 -0 -1 -1 -2 -13 -23 -25 -20 -9 -1 -1 -0 -1 -1 -2 -1 -1 -0 -2 -2
-60 -42 -10 -1 -6 -11 -10 -5 -15 -38 -51 -51 -87 -131 -164 -61 -68 -93 -88 -48 -30 -5 -3 -5 -0 -7 -19 -38 -57 -48 -15 -5 -0 -1 -1 -1 -0 -5 -0 -0 -0 -0 -0
-96 -89 -78 -86 -101 -89 -62 -36 -18 -21 -28 -71 -93 -108 -118 -123 -142 -151 -186 -113 -80 -70 -57 -24 -12 -2 -5 -8 -59 -71 -51 -47 -37 -5 -1 -0 -0 -24 -87 -0 -0 -0 -0
-103 -107 -91 -82 -73 -69 -81 -66 -51 -52 -19 -17 -45 -66 -88 -113 -230 -108 -103 -171 -120 -107 -77 -73 -54 -48 -12 -7 -12 -2 -5 -1 -14 -13 -0 -0 -3 -105 -0 -0 -0 -0 -0
-104 -131 -135 -28 -23 -51 -72 -51 -43 -41 -43 -69 -84 -86 -39 -47 -155 -0 -0 -153 -105 -43 -55 -89 -125 -98 -67 -103 -50 -23 -0 -1 -89 -89 -125 -21 -0 -0 -0 -0 -0 -0 -0
-12 -124 -79 -85 -135 -12 -11 -125 -27 -25 -53 -72 -95 -101 -102 -0 -63 -0 -0 -43 -76 -14 -24 -30 -102 -81 -131 -87 -75 -30 -3 -3 -2 -96 -10 -0 -0 -0 -0 -0 -0 -0 -0
-18 -170 -115 -122 -92 -75 -50 -37 -34 -47 -28 -48 -70 -59 -39 -41 -72 -0 -0 -0 -0 -0 -5 -1 -16 -81 -90 -78 -72 -33 -41 -5 -8 -4 -27 -99 -0 -0 -0 -0 -0 -1 -0
-170 -198 -165 -105 -150 -0 -0 -40 -15 -9 -17 -48 -62 -42 -0 -4 -64 -0 -0 -0 -0 -0 -0 -1 -1 -26 -73 -79 -79 -52 -46 -28 -10 -53 -41 -0 -0 -0 -0 -0 -0 -0 -0
-53 -226 -133 -91 -98 -122 -89 -47 -60 -66 -30 -0 -0 -0 -0 -0 -9 -0 -0 -0 -0 -0 -0 -7 -63 -36 -144 -138 -127 -125 -83 -51 -10 -17 -65 -0 -0 -0 -0 -0 -1 -0 -0
-0 -0 -0 -0 -26 -128 -142 -3 -2 -0 -0 -0 -0 -0 -0 -0 -1 -18 -22 -40 -0 -0 -0 -0 -63 -87 -105 -112 -0 -0 -101 -68 -34 -99 -110 -0 -0 -0 -1 -1 -0 -4 -0
-0 -0 -0 -0 -0 -1 -2 -1 -0 -0 -0 -0 -0 -0 -0 -1 -6 -27 -10 -40 -14 -0 -3 -0 -0 -117 -92 -0 -0 -0 -88 -63 -108 -126 -0 -0 -0 -0 -1 -1 -1 -0 -0
-0 -0 -0 -0 -0 -1 -1 -0 -0 -0 -0 -0 -0 -0 -0 -0 -0 -0 -0 -0 -0 -0 -0 -0 -0 -125 -124 -0 -83 -92 -30 -76 -156 -170 -196 -84 -0 -0 -1 -0 -1 -0 -1
-1 -1 -1 -2 -2 -2 -2 -2 -1 -0 -0 -0 -0 -0 -0 -0 -0 -0 -0 -0 -0 -0 -0 -96 -136 -184 -141 -94 -49 -27 -60 -147 -96 -28 -27 -184 -180 -0 -0 -0 -1 -1 -1
-0 -1 -1 -1 -1 -3 -4 -2 -1 -1 -1 -0 -39 -0 -0 -0 -0 -0 -0 -0 -0 -0 -0 -87 -95 -123 -134 -76 -55 -9 -50 -119 -0 -0 -4 -0 -0 -0 -0 -0 -0 -0 -0
-0 -0 -0 -1 -2 -2 -3 -1 -1 -0 -1 -2 -223 -65 -0 -0 -0 -0 -0 -0 -0 -40 -55 -142 -76 -76 -83 -50 -28 -9 -111 -0 -0 -0 -71 -0 -0 -0 -0 -0 -0 -0 -0
-0 -0 -0 -0 -0 -0 -0 -0 -0 -1 -180 -196 -216 -165 -71 -0 -9 -65 -0 -0 -0 -28 -1 -60 -94 -78 -71 -47 -34 -47 -140 -0 -0 -0 -25 -0 -0 -0 -0 -0 -0 -0 -0
-2 -1 -1 -0 -0 -0 -0 -0 -121 -102 -107 -123 -91 -132 -10 -30 -146 -61 -107 -2 -0 -63 -3 -1 -7 -44 -80 -51 -58 -85 -152 -0 -0 -0 -0 -0 -0 -0 -0 -13 -14 -29 -18
-2 -1 -0 -1 -0 -1 -0 -0 -0 -0 -73 -58 -66 -69 -10 -150 -93 -96 -114 -25 -78 -95 -5 -0 -12 -13 -29 -33 -46 -108 -129 -0 -0 -0 -0 -0 -0 -0 -0 -3 -2 -2 -1
-2 -4 -1 -2 -1 -1 -0 -0 -0 -0 -0 -22 -7 -24 -78 -132 -42 -58 -79 -40 -10 -1 -23 -27 -22 -40 -15 -6 -5 -35 -62 -0 -0 -0 -0 -0 -0 -37 -0 -1 -8 -1 -2
-0 -0 -0 -0 -0 -1 -0 -0 -0 -1 -0 -0 -1 -3 -4 -14 -6 -7 -5 -2 -0 -1 -1 -1 -7 -27 -20 -18 -24 -28 -51 -0 -0 -0 -0 -0 -0 -0 -1 -2 -3 -2 -2
-0 -0 -1 -0 -0 -0 -0 -0 -0 -0 -0 -2 -10 -10 -1 -1 -3 -2 -1 -2 -1 -1 -1 -1 -1 -4 -3 -11 -74 -56 -9 -0 -0 -0 -0 -0 -0 -1 -2 -2 -1 -1 -1
-0 -0 -0 -0 -0 -0 -0 -0 -0 -0 -0 -6 -0 -3 -1 -3 -2 -0 -1 -4 -2 -2 -1 -1 -1 -7 -5 -10 -32 -13 -0 -0 -0 -0 -0 -0 -2 -2 -2 -1 -3 -1 -3
Wind_Speed
19 20 21 8 12 23 26 27 25 25 24 24 22 20 14 12 8 15 14 18 17 19 19 13 11 13 16 2 4 3 4 4 8 6 15 12 11 7 7 7 7 9 8
14 15 16 18 19 27 29 28 26 27 25 24 22 17 16 14 14 17 17 16 16 20 18 17 16 13 13 10 15 7 9 8 6 10 20 23 15 14 10 6 7 8 10
12 11 10 10 14 16 19 8 20 25 22 15 16 14 15 15 10 17 24 22 20 23 22 20 19 17 19 18 13 18 9 7 8 9 18 11 17 14 8 6 6 5 6
13 11 9 8 8 7 10 7 1 2 15 14 16 17 18 22 22 24 22 21 23 26 24 25 20 18 20 17 16 17 17 16 14 16 22 14 12 16 11 6 8 4 6
16 14 13 10 7 5 4 3 3 5 8 12 13 13 16 19 21 20 22 23 22 25 24 25 24 21 24 20 17 13 11 13 17 11 27 16 17 18 17 20 20 17 19
21 20 18 16 16 16 14 8 7 7 6 6 7 10 17 16 21 19 18 22 24 27 28 30 30 24 21 16 17 21 18 20 24 29 23 21 22 20 18 19 20 20 19
20 20 20 20 20 20 19 16 11 8 7 8 7 9 6 5 9 12 15 20 19 20 21 26 28 26 16 21 18 18 24 28 27 24 25 23 24 22 22 22 21 22 22
19 20 21 22 22 22 21 20 18 18 16 15 12 8 5 5 4 8 16 19 20 18 16 18 21 22 22 22 24 23 19 21 22 22 21 23 22 21 22 23 26 26 24
22 22 22 24 25 26 25 24 23 22 21 18 15 14 12 12 10 13 14 24 26 30 25 23 22 24 26 25 25 26 27 23 18 19 20 20 22 23 23 25 23 22 23
22 22 22 22 23 24 24 25 25 24 24 23 23 21 21 24 24 23 26 26 28 29 11 16 24 26 20 30 24 24 22 22 22 18 21 22 24 23 21 20 21 20 21
24 22 22 22 22 22 22 22 23 24 25 25 25 24 25 28 29 28 28 25 29 15 25 12 16 16 28 26 21 23 22 23 24 20 21 22 23 23 20 15 16 17 16
25 24 23 22 21 23 23 23 24 24 26 26 26 27 25 22 20 21 24 26 27 17 28 32 27 16 18 23 21 23 20 19 21 22 23 23 24 23 20 18 16 13 12
28 28 26 25 23 23 24 26 27 26 25 25 27 27 28 25 19 19 24 31 29 28 32 29 34 20 22 21 22 20 18 19 22 23 24 25 22 21 20 18 16 15 15
32 32 31 30 28 26 25 25 26 29 28 28 29 29 27 25 27 23 27 25 26 27 28 28 30 23 23 22 21 21 19 21 22 22 24 23 20 19 17 16 16 14 14
37 36 35 33 31 28 25 26 28 29 31 33 31 32 32 27 25 28 31 33 31 29 28 25 23 23 22 22 23 21 23 22 21 23 25 22 20 18 17 15 15 14 14
38 38 36 36 33 30 30 32 28 25 29 27 24 27 33 30 34 37 34 36 34 31 30 30 30 26 14 15 21 18 21 20 20 24 23 22 18 16 16 15 14 14 15
38 38 37 35 33 31 30 32 36 36 33 33 27 23 23 24 28 30 33 34 36 30 30 31 29 26 27 20 18 21 24 22 22 22 21 19 17 15 12 11 11 11 12
35 35 36 34 33 34 34 35 36 38 40 39 31 24 21 21 25 29 32 33 35 32 29 30 29 26 27 24 16 16 19 22 20 20 18 16 13 10 10 10 10 11 12
34 34 33 33 31 30 31 32 33 32 37 39 37 27 22 21 24 27 27 32 35 34 31 30 28 25 22 22 23 17 17 18 17 16 14 11 8 7 7 7 8 11 10
32 32 32 30 29 30 31 32 31 33 32 31 34 34 26 21 25 29 25 29 33 35 31 28 24 23 20 17 18 18 15 14 15 13 10 9 8 7 8 8 7 7 8
33 32 31 29 28 28 29 31 35 34 30 33 34 32 27 26 29 30 26 26 31 31 32 29 22 19 19 18 21 17 15 14 16 13 13 9 6 12 10 8 4 4 7
34 32 32 29 30 31 30 30 29 31 34 34 33 34 26 25 28 31 31 28 26 28 30 28 25 22 19 17 16 17 17 15 12 10 9 9 9 10 6 5 3 6 9
31 33 31 30 30 30 31 31 31 28 30 34 34 34 28 27 30 32 31 29 26 23 25 25 23 23 21 17 15 14 14 14 13 12 10 7 11 12 4 5 5 4 6
32 31 30 30 29 29 30 30 33 36 37 36 35 34 34 33 28 30 32 28 24 24 21 20 18 18 18 19 17 13 12 12 12 12 10 9 10 5 5 4 2 0 3
31 29 30 30 31 30 31 29 27 29 33 34 33 32 36 35 30 29 29 27 24 22 20 20 18 16 16 15 19 16 12 12 11 10 9 8 9 6 5 3 2 2 4
29 29 31 33 31 30 28 24 21 25 32 33 33 31 33 33 32 29 27 23 24 23 18 17 17 17 16 17 16 19 17 14 12 10 9 8 7 6 5 4 2 5 6
Wind_Direction
68 76 89 10 258 252 256 267 279 284 289 296 301 304 310 306 306 298 296 291 293 290 295 307 317 322 319 83 13 46 36 96 160 161 344 2 12 53 61 63 150 173 152
78 91 106 118 163 232 236 259 283 287 294 297 304 310 311 307 301 294 297 293 290 285 290 296 304 315 316 324 321 347 338 349 6 352 319 303 346 354 23 67 147 157 168
79 94 117 137 164 182 197 182 303 295 301 313 313 314 315 311 308 298 288 290 284 282 285 291 298 302 301 306 315 311 331 336 337 346 324 354 336 352 34 55 55 107 144
55 66 82 118 142 152 179 177 158 346 314 317 316 313 312 301 301 293 294 292 285 281 284 286 294 296 295 301 305 308 310 310 315 316 308 337 351 341 8 38 21 63 42
29 34 39 56 66 87 75 56 79 16 24 332 325 326 318 308 302 300 293 291 290 285 286 287 287 288 286 293 301 308 314 310 304 332 259 327 329 331 336 336 334 344 336
20 17 14 14 7 4 3 13 11 357 5 5 347 344 323 299 301 301 297 291 286 284 282 279 280 288 289 288 289 289 300 290 287 262 299 309 311 322 335 338 337 340 342
8 7 4 360 355 352 349 350 354 352 347 341 337 339 349 354 286 306 299 299 287 285 282 280 280 282 289 287 286 287 281 276 278 287 289 297 300 311 317 328 334 333 334
354 351 348 345 341 341 339 337 336 335 332 329 327 320 302 292 261 292 305 293 295 287 272 271 274 277 282 282 283 283 285 284 283 286 295 296 303 313 319 323 323 325 331
338 338 337 334 330 328 327 327 326 325 325 328 329 327 323 316 308 308 314 303 300 290 288 277 270 271 273 273 276 277 276 280 288 288 293 299 303 308 314 318 327 332 334
336 334 334 335 334 331 329 326 324 322 320 319 318 319 320 318 319 316 308 304 301 298 257 285 278 270 267 262 271 271 273 276 280 291 291 294 298 307 317 324 329 335 339
334 336 335 334 334 334 333 331 329 326 323 319 315 311 309 308 307 308 305 311 299 283 293 265 280 265 267 263 261 265 264 275 279 282 288 292 297 305 319 337 337 341 348
333 331 329 328 327 327 328 328 327 325 322 318 316 313 310 306 306 308 310 310 311 301 289 283 282 267 262 260 260 263 261 270 273 278 283 288 293 302 317 327 337 347 358
328 327 326 324 321 320 319 319 319 319 318 317 315 313 311 309 304 300 306 305 308 309 289 281 275 279 272 264 263 260 257 262 267 272 277 283 293 303 312 324 336 342 354
322 321 319 317 315 314 314 313 313 313 313 313 312 310 310 308 304 302 298 305 308 304 293 288 273 278 272 271 269 264 265 261 262 269 274 282 293 303 315 324 334 348 354
317 317 316 315 313 311 309 309 309 309 307 306 307 305 304 304 302 299 292 290 293 294 293 291 289 278 273 270 268 266 261 260 263 265 269 278 288 299 308 321 331 344 346
316 316 316 312 313 312 310 309 307 304 304 302 299 298 298 297 291 288 288 281 283 286 286 280 278 274 274 266 265 262 254 251 258 259 265 273 284 296 307 320 332 338 341
317 316 316 315 312 310 310 309 307 305 305 302 300 297 296 297 294 289 285 280 276 282 279 280 275 274 262 268 266 258 249 252 255 260 266 272 282 295 309 324 333 343 348
319 319 318 318 316 313 311 308 307 304 300 298 302 301 297 299 296 289 285 279 275 275 277 275 276 273 268 263 254 246 254 251 254 259 266 274 283 297 308 317 328 333 338
319 319 319 319 320 317 313 311 310 309 301 296 295 300 296 297 299 293 288 278 270 270 272 272 275 277 272 263 252 247 247 249 251 255 264 270 280 295 312 327 333 329 338
320 319 320 321 321 318 315 312 311 309 307 304 298 294 299 297 297 292 288 279 270 267 271 272 276 277 273 260 249 246 241 236 247 252 258 268 277 295 304 313 319 324 323
317 318 319 320 319 318 316 313 307 309 311 303 297 295 299 295 291 288 287 282 270 268 268 269 273 274 270 260 252 245 238 239 247 241 258 261 274 298 306 297 316 330 323
316 317 318 318 318 317 315 314 312 308 305 304 298 292 294 292 290 285 280 281 277 270 268 269 270 269 266 258 248 246 242 238 229 216 236 249 274 294 284 292 308 317 319
317 316 316 316 316 314 315 314 313 311 306 300 297 291 293 290 287 282 277 277 274 272 270 269 268 266 264 259 249 236 229 227 233 231 230 240 270 286 258 280 293 322 331
316 316 316 315 315 315 315 315 313 304 299 295 292 287 285 284 285 279 273 276 274 271 270 268 267 264 259 258 254 241 231 223 223 216 223 244 259 212 179 166 169 282 346
319 318 316 315 314 316 316 317 319 313 301 296 292 289 279 278 281 276 274 276 272 270 269 267 270 268 256 250 249 246 216 212 207 209 223 222 234 236 211 199 237 314 337
321 318 313 311 316 318 320 324 327 321 302 293 290 289 281 277 273 274 275 280 273 271 266 266 270 271 263 252 243 241 247 197 204 204 229 209 217 238 222 232 263 311 331